Location: Gourel Adama
(15.1080°N, 12.6039°W)
Time: 05:48:05
(UTC+00:00)

Daily predictions for brighter satellites

Satellite Brightness Start Highest point End
(mag) Time Altitude Azimuth Time Altitude Azimuth Time Altitude Azimuth
ATLAS 3B R/B 4.5 03:40:37 22° NNE 03:40:37 22° NNE 03:42:44 10° NNE
Cosmos 2263 Rocket 4.4 03:46:51 21° ENE 03:46:51 21° ENE 03:49:25 10° NE
Ariane H10+ 4.3 04:23:53 35° S 04:26:23 39° SSE 04:48:36 10° E
Gblst 52 Del rocket 4.3 04:38:57 69° NNE 04:39:16 71° NE 04:44:43 10° SE
Lacrosse 5 3.8 04:39:09 19° SSE 04:41:06 23° ESE 04:45:06 10° ENE
PSLV R/B 4.1 04:46:07 62° ESE 04:46:07 62° ESE 04:48:29 10° ESE
GPS 2-14 Rocket1 4.2 04:46:50 36° NE 04:46:50 36° NE 04:49:28 10° ENE
ATLAS 5 CENTAUR R/B 4.0 04:55:30 32° NW 04:55:30 32° NW 04:58:17 10° N
CZ-2C R/B 2.4 04:54:01 10° N 04:57:53 61° NNW 04:57:53 61° NNW
Cosmos 1066 Rocket 4.2 04:59:24 30° S 05:02:28 86° W 05:08:20 10° N
FALCON 9 DEB 4.2 05:05:44 40° ESE 05:05:44 40° ESE 05:08:04 10° SE
CCE 1 Rocket 4.4 05:05:20 39° NW 05:07:01 65° NNE 05:14:12 10° ESE
Spot 2 4.4 05:04:55 10° NNE 05:10:01 83° ESE 05:13:39 19° S
Cosmos 1484 Rocket 4.0 05:06:35 10° NNE 05:10:04 38° E 05:13:31 10° S
SL-16 R/B 2.1 05:04:51 10° NNW 05:10:31 85° WSW 05:16:11 10° SSE
Cosmos 2195 Rocket 4.4 05:08:35 28° SSW 05:11:49 62° W 05:17:54 10° N
ADEOS 3.9 05:09:28 10° N 05:14:18 41° WNW 05:14:18 41° WNW
Cosmos 1627 Rocket 4.4 05:10:18 17° SSW 05:15:02 65° W 05:21:06 10° N
STARLINK-52 3.8 05:18:49 39° SSE 05:18:49 39° SSE 05:20:59 10° SSE
Meteor 1-23 Rocket 4.4 05:17:42 34° SW 05:19:46 49° W 05:25:17 10° N
Cosmos 1689 Rocket 2.5 05:16:50 10° SSE 05:19:48 63° ENE 05:22:45 10° N
CZ-4B R/B 3.5 05:15:27 10° NNE 05:19:53 64° E 05:24:21 10° S
Cosmos 1437 Rocket 2.8 05:25:05 38° SW 05:26:22 56° W 05:30:23 10° N
Intelsat 5-3 Rocket 1.8 05:27:16 46° NNE 05:27:16 46° NNE 05:29:27 10° ENE
Cosmos 2263 Rocket 3.3 05:28:35 23° WNW 05:28:35 23° WNW 05:32:53 10° NNW
Palapa 6 Rocket 4.3 05:27:33 19° NW 05:29:20 27° N 05:32:56 10° ENE
Cosmos 494 Rocket 4.3 05:29:28 10° NNW 05:34:22 40° W 05:39:14 10° S
GPS 2-12 Rocket1 3.5 05:33:06 32° WSW 05:34:26 42° SSW 05:38:37 10° SE
STARLINK-1150 3.7 05:34:08 38° W 05:34:45 43° NW 05:38:10 10° NNE
Meteor 1-15 Rocket 4.4 05:30:21 10° N 05:36:00 78° E 05:41:44 10° S
Meteor 2-13 Rocket 4.4 05:31:16 10° SSW 05:37:14 62° W 05:43:11 10° N
STARLINK-1179 4.2 05:38:04 25° NW 05:38:04 25° NW 05:40:32 10° N
Cosmos 1818 4.1 05:32:39 10° NNW 05:38:00 61° ENE 05:43:17 10° SSE
STARLINK-1176 4.2 05:38:29 24° NW 05:38:29 24° NW 05:40:58 10° N
ATLAS 5 CENTAUR R/B 4.5 05:32:42 10° N 05:38:30 33° ENE 05:44:46 10° SE
DELTA 2 R/B(2) 3.5 05:40:48 47° NNE 05:40:48 47° NNE 05:42:09 10° NE
STARLINK-1173 4.1 05:40:52 25° NW 05:40:56 25° NW 05:43:34 10° N
STARLINK-1136 4.1 05:41:18 24° NW 05:41:23 24° NW 05:44:00 10° N
STARLINK-1170 4.1 05:40:37 29° W 05:41:36 34° NW 05:44:59 10° NNE
Palapa B4 Rocket 3.9 05:37:00 22° WSW 05:42:13 78° SSE 05:47:12 10° E
Cosmos 2151 Rocket 4.5 05:38:51 10° NW 05:42:28 26° W 05:44:25 19° SW
Skynet4D Del rocket 4.3 05:41:07 14° WNW 05:47:18 87° SSW 05:55:14 10° ESE
STARLINK-1183 4.1 05:47:22 23° WNW 05:47:55 24° NW 05:50:30 10° N
STARLINK-1181 4.2 05:47:49 22° WNW 05:48:23 24° NW 05:50:58 10° N
STARLINK-1196 4.2 05:48:14 22° WNW 05:48:50 23° NW 05:51:23 10° N
Okean O Rocket 4.2 05:45:26 10° NE 05:48:58 23° E 05:52:29 10° SSE
STARLINK-1186 4.2 05:48:40 22° WNW 05:49:15 23° NW 05:51:47 10° N
STARLINK-1185 4.2 05:49:05 21° WNW 05:49:42 23° NW 05:52:14 10° N
STARLINK-1175 4.2 05:49:32 21° WNW 05:50:09 22° NW 05:52:39 10° N
SWIFT 2.9 05:47:03 15° WNW 05:50:21 51° N 05:54:29 10° E
STARLINK-1147 4.3 05:49:57 21° WNW 05:50:36 22° NW 05:53:07 10° N
STARLINK-1146 4.3 05:50:23 20° WNW 05:51:04 22° NW 05:53:33 10° N
STARLINK-1152 4.3 05:50:50 20° WNW 05:51:32 21° NW 05:53:59 10° N
STARLINK-1195 4.3 05:51:16 19° WNW 05:51:57 21° NW 05:54:23 10° N
STARLINK-1137 4.4 05:51:42 19° WNW 05:52:26 21° NW 05:54:52 10° N
STARLINK-1142 4.4 05:52:08 19° WNW 05:52:51 20° NW 05:55:15 10° N
STARLINK-1151 4.3 05:51:50 20° W 05:53:06 25° NW 05:56:01 10° N
STARLINK-1127 4.4 05:52:34 19° WNW 05:53:20 20° NW 05:55:44 10° N
STARLINK-1184 4.4 05:53:00 18° WNW 05:53:46 20° NW 05:56:09 10° N
STARLINK-1193 4.4 05:53:26 18° WNW 05:54:13 20° NW 05:56:33 10° N
STARLINK-1133 4.4 05:53:17 19° W 05:54:38 24° NW 05:57:29 10° N
STARLINK-1194 4.5 05:53:52 18° WNW 05:54:41 20° NW 05:57:01 10° N
Meteor 1-31 Rocket 3.9 05:52:45 10° NNW 05:55:55 24° WNW 05:58:32 13° SW
STARLINK-1139 4.5 05:54:45 18° W 05:56:09 23° NW 05:58:58 10° N
Lacrosse 4 Rocket 1.5 05:57:39 10° SSW 06:01:53 87° ESE 06:06:14 10° NNE
EPKM 3.9 06:01:52 10° NW 06:02:56 12° NNW 06:03:52 10° N
FUSE 4.5 05:58:43 13° W 06:03:10 48° NNW 06:08:18 10° ENE
Meteor PRIRODA 4.2 06:00:35 10° N 06:03:58 36° WNW 06:07:23 10° SW
BREEZE-M DEB (TANK) 3.7 06:03:19 13° W 06:04:40 17° WNW 06:06:15 10° N
Aureole 3 Rocket 2.5 06:02:03 10° N 06:05:18 70° E 06:08:17 10° S
PSLV R/B 3.9 06:04:33 10° N 06:08:31 57° WNW 06:12:22 10° SSW
Cosmos 2251 Rocket 4.2 06:04:53 10° N 06:10:06 60° ENE 06:15:16 10° SSE
Cosmos 2266 Rocket 4.1 06:03:56 10° S 06:10:16 86° W 06:16:41 10° N
ALOS 2.9 06:11:01 10° N 06:15:14 35° WNW 06:19:29 10° SW
STARLINK-1129 4.1 06:11:15 10° SSW 06:15:20 62° SE 06:19:24 10° NE
H-2A R/B 3.7 06:12:48 10° NNW 06:15:37 19° WNW 06:18:25 10° WSW
Cosmos 1975 Rocket 4.2 06:12:48 10° SW 06:16:08 22° W 06:19:30 10° NNW
Cosmos 2056 Rocket 3.5 06:11:06 10° SSW 06:16:29 76° WNW 06:21:49 10° N
ASTRO E2 3.4 06:15:38 10° W 06:19:15 34° SSW 06:22:53 10° SSE
STARLINK-1134 3.9 06:16:13 10° SSW 06:20:19 73° SE 06:24:27 10° NE
NOAA 6 4.2 06:16:21 10° NNE 06:21:28 84° E 06:26:36 10° S
Cosmos 1844 3.7 06:16:26 10° SSW 06:21:55 64° WNW 06:27:24 10° N
